• In Germany
  • List of Countries
  • For 7 days
  • Water Temperature
  • Satellite Maps
  • Weather Map
  • Weather Widgets
  • user-avatar
    Login

    Hourly Weather Klagenfurt

    Today, 16 January, Tuesday

    Time Temperature Precipitation Wind Pressure Humidity
    00:00 -2°C° 0.1 mm 1 mps 686 mmHg 89%
    01:00 -2°C° 0 mm 1 mps 686 mmHg 89%
    02:00 -2°C° 0.2 mm 1 mps 685 mmHg 90%
    03:00 -1°C° 0.2 mm 1 mps 684 mmHg 90%
    04:00 -1°C° 0.2 mm 1 mps 684 mmHg 91%
    05:00 -1°C° 0 mm 1 mps 683 mmHg 91%
    06:00 -1°C° 0 mm 1 mps 683 mmHg 92%
    07:00 -1°C° 0 mm 1 mps 682 mmHg 93%
    08:00 0°C° 0 mm 1 mps 682 mmHg 90%
    09:00 -1°C° 0 mm 2 mps 682 mmHg 87%
    10:00 +1°C° 0 mm 2 mps 682 mmHg 84%
    11:00 +1°C° 0 mm 2 mps 681 mmHg 82%
    12:00 +1°C° 0 mm 3 mps 680 mmHg 80%
    13:00 +2°C° 0 mm 2 mps 680 mmHg 78%
    14:00 +2°C° 0 mm 2 mps 680 mmHg 81%
    15:00 +2°C° 0 mm 2 mps 679 mmHg 83%
    16:00 +1°C° 0 mm 2 mps 679 mmHg 86%
    17:00 +1°C° 0 mm 2 mps 678 mmHg 88%
    18:00 -1°C° 0 mm 2 mps 678 mmHg 90%
    19:00 -1°C° 0 mm 2 mps 678 mmHg 92%
    20:00 -1°C° 0.1 mm 2 mps 678 mmHg 92%
    21:00 -1°C° 0.1 mm 2 mps 677 mmHg 93%
    22:00 -1°C° 0.1 mm 2 mps 677 mmHg 93%
    23:00 +1°C° 0.1 mm 1 mps 677 mmHg 93%

    Tomorrow, 17 January, Wednesday

    Time Temperature Precipitation Wind Pressure Humidity
    00:00 +1°C° 0.1 mm 1 mps 677 mmHg 93%
    01:00 +1°C° 0.1 mm 1 mps 676 mmHg 93%
    02:00 +1°C° 0.2 mm 1 mps 676 mmHg 93%
    03:00 +1°C° 0.2 mm 1 mps 675 mmHg 92%
    04:00 0°C° 0.2 mm 1 mps 674 mmHg 92%
    05:00 0°C° 0.1 mm 1 mps 674 mmHg 92%
    06:00 +1°C° 0.1 mm 1 mps 674 mmHg 91%
    07:00 +1°C° 0.1 mm 1 mps 673 mmHg 90%
    08:00 +1°C° 0.2 mm 1 mps 674 mmHg 88%
    09:00 +2°C° 0.2 mm 1 mps 674 mmHg 86%
    10:00 +2°C° 0.2 mm 1 mps 675 mmHg 85%
    11:00 +2°C° 0.3 mm 2 mps 675 mmHg 77%
    12:00 +2°C° 0.3 mm 2 mps 675 mmHg 70%
    13:00 +2°C° 0.3 mm 3 mps 676 mmHg 62%
    14:00 +1°C° 0.1 mm 3 mps 677 mmHg 62%
    15:00 0°C° 0.1 mm 3 mps 678 mmHg 62%
    16:00 -1°C° 0.1 mm 3 mps 679 mmHg 62%
    17:00 -4°C° 0 mm 3 mps 679 mmHg 64%
    18:00 -4°C° 0 mm 2 mps 680 mmHg 67%
    19:00 -3°C° 0 mm 1 mps 681 mmHg 69%
    20:00 -3°C° 0 mm 1 mps 681 mmHg 70%
    21:00 -3°C° 0 mm 1 mps 682 mmHg 72%
    22:00 -3°C° 0 mm 1 mps 682 mmHg 74%
    23:00 -3°C° 0.1 mm 1 mps 683 mmHg 75%

    Day after tomorrow, 18 January, Thursday

    Time Temperature Precipitation Wind Pressure Humidity
    00:00 -3°C° 0.1 mm 1 mps 683 mmHg 76%
    01:00 -2°C° 0.1 mm 1 mps 684 mmHg 77%
    02:00 -3°C° 0.1 mm 1 mps 684 mmHg 77%
    03:00 -3°C° 0.1 mm 1 mps 685 mmHg 78%
    04:00 -3°C° 0.1 mm 1 mps 685 mmHg 78%
    05:00 -3°C° 0 mm 1 mps 685 mmHg 78%
    06:00 -3°C° 0 mm 1 mps 685 mmHg 78%
    07:00 -3°C° 0 mm 1 mps 686 mmHg 77%
    08:00 -2°C° 0 mm 1 mps 686 mmHg 74%
    09:00 -1°C° 0 mm 1 mps 686 mmHg 71%
    10:00 -2°C° 0 mm 2 mps 686 mmHg 67%
    11:00 -1°C° 0 mm 2 mps 685 mmHg 65%
    12:00 +1°C° 0 mm 2 mps 685 mmHg 63%
    13:00 +1°C° 0 mm 3 mps 684 mmHg 60%
    14:00 0°C° 0 mm 3 mps 684 mmHg 64%
    15:00 0°C° 0 mm 3 mps 683 mmHg 67%
    16:00 -1°C° 0 mm 2 mps 683 mmHg 71%
    17:00 -2°C° 0 mm 2 mps 682 mmHg 74%
    18:00 -2°C° 0 mm 2 mps 682 mmHg 78%
    19:00 -3°C° 0 mm 2 mps 682 mmHg 81%
    20:00 -3°C° 0 mm 2 mps 681 mmHg 82%
    21:00 -3°C° 0 mm 2 mps 681 mmHg 83%
    22:00 -3°C° 0 mm 2 mps 681 mmHg 83%
    23:00 -2°C° 0 mm 2 mps 681 mmHg 85%

    19 January, Friday

    Time Temperature Precipitation Wind Pressure Humidity
    00:00 -2°C° 0 mm 2 mps 681 mmHg 87%
    01:00 -2°C° 0 mm 2 mps 680 mmHg 89%
    02:00 -1°C° 0 mm 2 mps 680 mmHg 89%
    03:00 -1°C° 0 mm 2 mps 680 mmHg 90%
    04:00 -1°C° 0 mm 2 mps 680 mmHg 91%
    05:00 -1°C° 0.1 mm 2 mps 680 mmHg 91%
    06:00 -1°C° 0.1 mm 2 mps 680 mmHg 92%
    07:00 -1°C° 0.1 mm 2 mps 679 mmHg 92%
    08:00 +2°C° 0.1 mm 1 mps 680 mmHg 91%
    09:00 +2°C° 0.1 mm 1 mps 680 mmHg 90%
    10:00 +3°C° 0.1 mm 1 mps 680 mmHg 88%
    11:00 +4°C° 0.2 mm 1 mps 680 mmHg 87%
    12:00 +4°C° 0.2 mm 1 mps 680 mmHg 86%
    13:00 +5°C° 0.2 mm 1 mps 681 mmHg 84%
    14:00 +4°C° 0.8 mm 1 mps 680 mmHg 87%
    15:00 +3°C° 0.8 mm 1 mps 680 mmHg 89%
    16:00 +3°C° 0.8 mm 1 mps 680 mmHg 92%
    17:00 +2°C° 1.4 mm 1 mps 681 mmHg 92%
    18:00 -1°C° 1.4 mm 2 mps 681 mmHg 93%
    19:00 -1°C° 1.4 mm 2 mps 681 mmHg 93%
    20:00 -2°C° 1.4 mm 2 mps 681 mmHg 94%
    21:00 -3°C° 1.4 mm 2 mps 682 mmHg 94%
    22:00 -3°C° 1.4 mm 2 mps 682 mmHg 94%
    23:00 -3°C° 1.4 mm 2 mps 682 mmHg 94%

    20 January, Saturday

    Time Temperature Precipitation Wind Pressure Humidity
    00:00 -3°C° 1.4 mm 2 mps 682 mmHg 94%
    01:00 -4°C° 1.4 mm 2 mps 682 mmHg 94%
    02:00 -4°C° 0.5 mm 2 mps 681 mmHg 94%
    03:00 -4°C° 0.5 mm 2 mps 681 mmHg 94%
    04:00 -2°C° 0.5 mm 1 mps 681 mmHg 93%
    05:00 -3°C° 0.1 mm 1 mps 680 mmHg 93%
    06:00 -3°C° 0.1 mm 1 mps 680 mmHg 93%
    07:00 -3°C° 0.1 mm 1 mps 680 mmHg 92%
    08:00 -3°C° 0 mm 1 mps 680 mmHg 90%
    09:00 -2°C° 0 mm 1 mps 680 mmHg 88%
    10:00 -2°C° 0 mm 1 mps 680 mmHg 86%
    11:00 -1°C° 0 mm 1 mps 680 mmHg 84%
    12:00 0°C° 0 mm 1 mps 680 mmHg 81%
    13:00 0°C° 0 mm 1 mps 680 mmHg 79%
    14:00 0°C° 0.1 mm 1 mps 680 mmHg 80%
    15:00 0°C° 0.1 mm 1 mps 680 mmHg 82%
    16:00 -1°C° 0.1 mm 1 mps 680 mmHg 83%
    17:00 -2°C° 0 mm 1 mps 681 mmHg 84%
    18:00 -3°C° 0 mm 1 mps 681 mmHg 85%
    19:00 -4°C° 0 mm 1 mps 681 mmHg 85%
    20:00 -6°C° 0 mm 1 mps 682 mmHg 85%
    21:00 -7°C° 0 mm 2 mps 682 mmHg 84%
    22:00 -8°C° 0 mm 2 mps 682 mmHg 84%
    23:00 -8°C° 0 mm 2 mps 682 mmHg 83%

    21 January, Sunday

    Time Temperature Precipitation Wind Pressure Humidity
    00:00 -9°C° 0 mm 2 mps 682 mmHg 83%
    01:00 -10°C° 0 mm 2 mps 682 mmHg 83%
    02:00 -10°C° 0 mm 2 mps 683 mmHg 82%
    03:00 -10°C° 0 mm 2 mps 683 mmHg 82%
    04:00 -10°C° 0 mm 2 mps 683 mmHg 82%
    05:00 -9°C° 0 mm 1 mps 683 mmHg 81%
    06:00 -9°C° 0 mm 1 mps 683 mmHg 81%
    07:00 -9°C° 0 mm 1 mps 684 mmHg 81%
    08:00 -7°C° 0 mm 1 mps 684 mmHg 78%
    09:00 -6°C° 0 mm 1 mps 685 mmHg 76%
    10:00 -3°C° 0 mm 1 mps 686 mmHg 73%
    11:00 -2°C° 0 mm 1 mps 686 mmHg 69%
    12:00 -1°C° 0 mm 1 mps 686 mmHg 65%
    13:00 +1°C° 0 mm 1 mps 686 mmHg 61%
    14:00 0°C° 0 mm 1 mps 686 mmHg 65%
    15:00 -1°C° 0 mm 1 mps 686 mmHg 69%
    16:00 -1°C° 0 mm 1 mps 686 mmHg 72%
    17:00 -3°C° 0 mm 1 mps 686 mmHg 73%
    18:00 -4°C° 0 mm 1 mps 687 mmHg 75%
    19:00 -7°C° 0 mm 1 mps 687 mmHg 76%
    20:00 -7°C° 0 mm 1 mps 687 mmHg 76%
    21:00 -8°C° 0 mm 1 mps 688 mmHg 76%
    22:00 -8°C° 0 mm 1 mps 688 mmHg 76%
    23:00 -8°C° 0 mm 1 mps 688 mmHg 76%
    Show more